Time,TemperatureF,DewpointF,PressureIn,WindDirection,WindDirectionDegrees,WindSpeedMPH,WindSpeedGustMPH,Humidity,HourlyPrecipIn,Conditions,Clouds,dailyrainin,SoftwareType,DateUTC
2013-05-19 00:02:00,58.0,56.0,-100.00,NE,45,10.0,12.0,94,-99.99,,,0.00,,2013-05-19 06:02:00,
2013-05-19 00:12:00,57.0,55.0,-100.00,NE,35,12.0,14.0,93,-99.99,,,0.00,,2013-05-19 06:12:00,
2013-05-19 00:21:00,57.0,55.0,-100.00,NE,35,12.0,14.0,93,-99.99,,,0.00,,2013-05-19 06:21:00,
2013-05-19 00:32:00,56.0,54.0,-100.00,NE,35,11.0,14.0,93,-99.99,,,0.01,,2013-05-19 06:32:00,
2013-05-19 00:42:00,56.0,54.0,-100.00,NE,35,11.0,14.0,93,-99.99,,,0.01,,2013-05-19 06:42:00,
2013-05-19 00:52:00,56.0,54.0,-100.00,NE,40,9.0,11.0,93,-99.99,,,0.01,,2013-05-19 06:52:00,
2013-05-19 01:01:00,56.0,54.0,-100.00,NE,40,9.0,11.0,93,-99.99,,,0.01,,2013-05-19 07:01:00,
2013-05-19 01:11:00,56.0,54.0,-100.00,NE,45,11.0,12.0,94,-99.99,,,0.01,,2013-05-19 07:11:00,
2013-05-19 01:21:00,56.0,54.0,-100.00,NE,45,11.0,12.0,94,-99.99,,,0.01,,2013-05-19 07:21:00,
2013-05-19 01:32:00,56.0,54.0,-100.00,NNE,25,9.0,11.0,94,-99.99,,,0.01,,2013-05-19 07:32:00,
2013-05-19 01:42:00,56.0,54.0,-100.00,NNE,25,9.0,11.0,94,-99.99,,,0.01,,2013-05-19 07:42:00,
2013-05-19 01:52:00,56.0,54.0,-100.00,North,0,10.0,12.0,94,-99.99,,,0.01,,2013-05-19 07:52:00,
2013-05-19 02:01:00,56.0,54.0,-100.00,North,0,10.0,12.0,94,-99.99,,,0.01,,2013-05-19 08:01:00,
2013-05-19 02:12:00,56.0,54.0,-100.00,NNW,345,11.0,11.0,94,-99.99,,,0.01,,2013-05-19 08:12:00,
2013-05-19 02:22:00,56.0,54.0,-100.00,NNW,345,11.0,11.0,94,-99.99,,,0.01,,2013-05-19 08:22:00,
2013-05-19 02:32:00,56.0,54.0,-100.00,North,350,11.0,12.0,94,-99.99,,,0.01,,2013-05-19 08:32:00,
2013-05-19 02:42:00,56.0,54.0,-100.00,North,350,11.0,12.0,94,-99.99,,,0.01,,2013-05-19 08:42:00,
2013-05-19 02:52:00,56.0,54.0,-100.00,NNW,345,12.0,16.0,94,-99.99,,,0.01,,2013-05-19 08:52:00,
2013-05-19 03:02:00,56.0,54.0,-100.00,NNW,345,12.0,16.0,94,-99.99,,,0.01,,2013-05-19 09:02:00,
2013-05-19 03:12:00,56.0,54.0,-100.00,NNW,345,12.0,14.0,94,-99.99,,,0.01,,2013-05-19 09:12:00,
2013-05-19 03:21:00,56.0,54.0,-100.00,NNW,345,12.0,14.0,94,-99.99,,,0.01,,2013-05-19 09:21:00,
2013-05-19 03:32:00,56.0,54.0,-100.00,North,350,12.0,14.0,94,-99.99,,,0.01,,2013-05-19 09:32:00,
2013-05-19 03:43:00,56.0,54.0,-100.00,North,350,12.0,14.0,94,-99.99,,,0.01,,2013-05-19 09:43:00,
2013-05-19 03:53:00,56.0,54.0,-100.00,North,355,11.0,12.0,94,-99.99,,,0.01,,2013-05-19 09:53:00,
2013-05-19 04:02:00,56.0,54.0,-100.00,North,355,11.0,12.0,94,-99.99,,,0.01,,2013-05-19 10:02:00,
2013-05-19 04:12:00,55.0,54.0,-100.00,NNW,340,14.0,16.0,94,-99.99,,,0.01,,2013-05-19 10:12:00,
2013-05-19 04:23:00,55.0,54.0,-100.00,NNW,340,14.0,16.0,94,-99.99,,,0.01,,2013-05-19 10:23:00,
2013-05-19 04:33:00,54.0,53.0,-100.00,North,355,18.0,21.0,94,-99.99,,,0.01,,2013-05-19 10:33:00,
2013-05-19 04:42:00,54.0,53.0,-100.00,North,355,18.0,21.0,94,-99.99,,,0.01,,2013-05-19 10:42:00,
2013-05-19 04:52:00,54.0,53.0,-100.00,North,0,16.0,18.0,94,-99.99,,,0.01,,2013-05-19 10:52:00,
2013-05-19 05:02:00,54.0,53.0,-100.00,North,0,16.0,18.0,94,-99.99,,,0.01,,2013-05-19 11:02:00,
2013-05-19 05:12:00,54.0,52.0,-100.00,North,0,18.0,19.0,93,-99.99,,,0.01,,2013-05-19 11:12:00,
2013-05-19 05:21:00,54.0,52.0,-100.00,North,0,18.0,19.0,93,-99.99,,,0.01,,2013-05-19 11:21:00,
2013-05-19 05:32:00,54.0,52.0,-100.00,North,0,16.0,19.0,94,-99.99,,,0.01,,2013-05-19 11:32:00,
2013-05-19 05:42:00,54.0,52.0,-100.00,North,0,16.0,19.0,94,-99.99,,,0.01,,2013-05-19 11:42:00,
2013-05-19 05:52:00,53.0,51.0,-100.00,North,0,19.0,22.0,94,-99.99,,,0.01,,2013-05-19 11:52:00,
2013-05-19 06:01:00,53.0,51.0,-100.00,North,0,19.0,22.0,94,-99.99,,,0.01,,2013-05-19 12:01:00,
2013-05-19 06:11:00,53.0,51.0,-100.00,North,5,19.0,21.0,94,-99.99,,,0.01,,2013-05-19 12:11:00,
2013-05-19 06:22:00,53.0,51.0,-100.00,North,5,19.0,21.0,94,-99.99,,,0.01,,2013-05-19 12:22:00,
2013-05-19 06:31:00,52.0,51.0,-100.00,North,0,17.0,20.0,94,-99.99,,,-99.99,,2013-05-19 12:31:00,
2013-05-19 06:32:00,52.0,51.0,-100.00,North,0,21.0,24.0,94,-99.99,,,0.01,,2013-05-19 12:32:00,
2013-05-19 06:42:00,52.0,51.0,-100.00,North,0,21.0,24.0,94,-99.99,,,0.01,,2013-05-19 12:42:00,
2013-05-19 06:52:00,52.0,51.0,-100.00,North,5,20.0,22.0,94,-99.99,,,0.01,,2013-05-19 12:52:00,
2013-05-19 07:01:00,52.0,51.0,-100.00,North,5,20.0,22.0,94,-99.99,,,0.01,,2013-05-19 13:01:00,
2013-05-19 07:11:00,52.0,51.0,-100.00,North,0,17.0,20.0,94,-99.99,,,-99.99,,2013-05-19 13:11:00,
2013-05-19 07:21:00,52.0,51.0,-100.00,North,0,17.0,20.0,94,-99.99,,,-99.99,,2013-05-19 13:21:00,
2013-05-19 07:52:00,52.0,51.0,-100.00,North,0,23.0,27.0,94,-99.99,,,0.01,,2013-05-19 13:52:00,
2013-05-19 08:02:00,52.0,51.0,-100.00,North,0,23.0,27.0,94,-99.99,,,0.01,,2013-05-19 14:02:00,
2013-05-19 08:11:00,53.0,51.0,-100.00,North,0,20.0,22.0,94,-99.99,,,0.01,,2013-05-19 14:11:00,
2013-05-19 08:21:00,53.0,51.0,-100.00,North,0,20.0,22.0,94,-99.99,,,0.01,,2013-05-19 14:21:00,
2013-05-19 08:32:00,52.0,51.0,-100.00,North,5,19.0,21.0,94,-99.99,,,0.01,,2013-05-19 14:32:00,
2013-05-19 08:42:00,52.0,51.0,-100.00,North,5,19.0,21.0,94,-99.99,,,0.01,,2013-05-19 14:42:00,
2013-05-19 08:52:00,52.0,51.0,-100.00,North,0,18.0,22.0,94,-99.99,,,0.01,,2013-05-19 14:52:00,
2013-05-19 09:01:00,52.0,51.0,-100.00,North,0,18.0,22.0,94,-99.99,,,0.01,,2013-05-19 15:01:00,
2013-05-19 09:11:00,52.0,51.0,-100.00,North,0,22.0,24.0,94,-99.99,,,0.01,,2013-05-19 15:11:00,
2013-05-19 09:22:00,52.0,51.0,-100.00,North,0,22.0,24.0,94,-99.99,,,0.01,,2013-05-19 15:22:00,
2013-05-19 09:33:00,52.0,50.0,-100.00,North,0,22.0,27.0,94,-99.99,,,0.01,,2013-05-19 15:33:00,
2013-05-19 09:43:00,52.0,50.0,-100.00,North,0,22.0,27.0,94,-99.99,,,0.01,,2013-05-19 15:43:00,
2013-05-19 09:53:00,52.0,50.0,-100.00,North,0,16.0,18.0,94,-99.99,,,0.01,,2013-05-19 15:53:00,
2013-05-19 10:03:00,52.0,50.0,-100.00,North,0,16.0,18.0,94,-99.99,,,0.01,,2013-05-19 16:03:00,
2013-05-19 10:12:00,52.0,50.0,-100.00,North,0,19.0,23.0,92,-99.99,,,0.01,,2013-05-19 16:12:00,
2013-05-19 10:23:00,52.0,50.0,-100.00,North,0,19.0,23.0,92,-99.99,,,0.01,,2013-05-19 16:23:00,
2013-05-19 10:32:00,52.0,49.0,-100.00,North,0,21.0,24.0,90,-99.99,,,0.01,,2013-05-19 16:32:00,
2013-05-19 10:42:00,52.0,49.0,-100.00,North,0,21.0,24.0,90,-99.99,,,0.01,,2013-05-19 16:42:00,
2013-05-19 10:52:00,52.0,49.0,-100.00,North,350,22.0,25.0,87,-99.99,,,0.01,,2013-05-19 16:52:00,
2013-05-19 11:02:00,52.0,49.0,-100.00,North,350,22.0,25.0,87,-99.99,,,0.01,,2013-05-19 17:02:00,
2013-05-19 11:12:00,53.0,48.0,-100.00,North,350,19.0,21.0,84,-99.99,,,0.01,,2013-05-19 17:12:00,
2013-05-19 11:22:00,53.0,48.0,-100.00,North,350,19.0,21.0,84,-99.99,,,0.01,,2013-05-19 17:22:00,
2013-05-19 11:32:00,53.0,48.0,-100.00,North,355,19.0,22.0,83,-99.99,,,0.01,,2013-05-19 17:32:00,
2013-05-19 11:42:00,53.0,48.0,-100.00,North,355,19.0,22.0,83,-99.99,,,0.01,,2013-05-19 17:42:00,
2013-05-19 11:52:00,53.0,48.0,-100.00,North,0,18.0,21.0,81,-99.99,,,0.01,,2013-05-19 17:52:00,
2013-05-19 12:02:00,53.0,48.0,-100.00,North,0,18.0,21.0,81,-99.99,,,0.01,,2013-05-19 18:02:00,
2013-05-19 12:12:00,54.0,47.0,-100.00,NNW,340,23.0,27.0,79,-99.99,,,0.01,,2013-05-19 18:12:00,
2013-05-19 12:22:00,54.0,47.0,-100.00,NNW,340,23.0,27.0,79,-99.99,,,0.01,,2013-05-19 18:22:00,
2013-05-19 12:32:00,54.0,47.0,-100.00,NNW,340,24.0,29.0,78,-99.99,,,0.01,,2013-05-19 18:32:00,
2013-05-19 12:42:00,54.0,47.0,-100.00,NNW,340,24.0,29.0,78,-99.99,,,0.01,,2013-05-19 18:42:00,
2013-05-19 12:52:00,54.0,47.0,-100.00,NNW,340,21.0,26.0,78,-99.99,,,0.01,,2013-05-19 18:52:00,
2013-05-19 13:01:00,54.0,47.0,-100.00,NNW,340,21.0,26.0,78,-99.99,,,0.01,,2013-05-19 19:01:00,
2013-05-19 13:11:00,54.0,48.0,-100.00,North,350,22.0,25.0,80,-99.99,,,0.01,,2013-05-19 19:11:00,
2013-05-19 13:22:00,54.0,48.0,-100.00,North,350,22.0,25.0,80,-99.99,,,0.01,,2013-05-19 19:22:00,
2013-05-19 13:32:00,54.0,49.0,-100.00,NNW,340,23.0,26.0,82,-99.99,,,0.01,,2013-05-19 19:32:00,
2013-05-19 13:42:00,54.0,49.0,-100.00,NNW,340,23.0,26.0,82,-99.99,,,0.01,,2013-05-19 19:42:00,
2013-05-19 13:52:00,54.0,48.0,-100.00,NNW,345,24.0,27.0,81,-99.99,,,0.01,,2013-05-19 19:52:00,
2013-05-19 14:02:00,54.0,48.0,-100.00,NNW,345,24.0,27.0,81,-99.99,,,0.01,,2013-05-19 20:02:00,
2013-05-19 14:11:00,54.0,47.0,-100.00,NNW,340,24.0,27.0,80,-99.99,,,0.01,,2013-05-19 20:11:00,
2013-05-19 14:21:00,54.0,47.0,-100.00,NNW,340,24.0,27.0,80,-99.99,,,0.01,,2013-05-19 20:21:00,
2013-05-19 14:32:00,53.0,48.0,-100.00,North,350,21.0,25.0,82,-99.99,,,0.01,,2013-05-19 20:32:00,
2013-05-19 14:42:00,53.0,48.0,-100.00,North,350,21.0,25.0,82,-99.99,,,0.01,,2013-05-19 20:42:00,
2013-05-19 14:52:00,53.0,48.0,-100.00,NNW,340,26.0,29.0,82,-99.99,,,0.01,,2013-05-19 20:52:00,
2013-05-19 15:02:00,53.0,48.0,-100.00,NNW,340,26.0,29.0,82,-99.99,,,0.01,,2013-05-19 21:02:00,
2013-05-19 15:11:00,53.0,48.0,-100.00,NNW,330,26.0,29.0,83,-99.99,,,0.01,,2013-05-19 21:11:00,
2013-05-19 15:22:00,53.0,48.0,-100.00,NNW,330,26.0,29.0,83,-99.99,,,0.01,,2013-05-19 21:22:00,
2013-05-19 15:32:00,53.0,48.0,-100.00,NNW,330,17.0,19.0,83,-99.99,,,0.01,,2013-05-19 21:32:00,
2013-05-19 15:43:00,53.0,48.0,-100.00,NNW,330,17.0,19.0,83,-99.99,,,0.01,,2013-05-19 21:43:00,
2013-05-19 15:53:00,53.0,46.0,-100.00,NNW,335,25.0,29.0,78,-99.99,,,0.01,,2013-05-19 21:53:00,
2013-05-19 16:03:00,53.0,46.0,-100.00,NNW,335,25.0,29.0,78,-99.99,,,0.01,,2013-05-19 22:03:00,
2013-05-19 16:12:00,52.0,46.0,-100.00,NNW,340,24.0,28.0,79,-99.99,,,0.01,,2013-05-19 22:12:00,
2013-05-19 16:23:00,52.0,46.0,-100.00,NNW,340,24.0,28.0,79,-99.99,,,0.01,,2013-05-19 22:23:00,
2013-05-19 16:33:00,52.0,47.0,-100.00,NNW,340,20.0,23.0,84,-99.99,,,0.01,,2013-05-19 22:33:00,
2013-05-19 16:42:00,52.0,47.0,-100.00,NNW,340,20.0,23.0,84,-99.99,,,0.01,,2013-05-19 22:42:00,
2013-05-19 16:52:00,51.0,47.0,-100.00,NNW,340,24.0,27.0,88,-99.99,,,0.01,,2013-05-19 22:52:00,
2013-05-19 17:02:00,51.0,47.0,-100.00,NNW,340,24.0,27.0,88,-99.99,,,0.01,,2013-05-19 23:02:00,
2013-05-19 17:12:00,51.0,48.0,-100.00,NNW,335,24.0,27.0,91,-99.99,,,0.01,,2013-05-19 23:12:00,
2013-05-19 17:22:00,51.0,48.0,-100.00,NNW,335,24.0,27.0,91,-99.99,,,0.01,,2013-05-19 23:22:00,
2013-05-19 17:32:00,51.0,48.0,-100.00,NNW,330,23.0,27.0,92,-99.99,,,0.01,,2013-05-19 23:32:00,
2013-05-19 17:42:00,51.0,48.0,-100.00,NNW,330,23.0,27.0,92,-99.99,,,0.01,,2013-05-19 23:42:00,
2013-05-19 17:52:00,51.0,49.0,-100.00,NW,325,21.0,24.0,93,-99.99,,,0.01,,2013-05-19 23:52:00,
2013-05-19 18:02:00,51.0,49.0,-100.00,NW,325,21.0,24.0,93,-99.99,,,0.01,,2013-05-20 00:02:00,
2013-05-19 18:11:00,50.0,48.0,-100.00,NW,325,24.0,29.0,93,-99.99,,,0.02,,2013-05-20 00:11:00,
2013-05-19 18:22:00,50.0,48.0,-100.00,NW,325,24.0,29.0,93,-99.99,,,0.02,,2013-05-20 00:22:00,
2013-05-19 18:32:00,50.0,48.0,-100.00,NW,325,22.0,29.0,94,-99.99,,,0.00,,2013-05-20 00:32:00,
2013-05-19 18:42:00,50.0,48.0,-100.00,NW,325,22.0,29.0,94,-99.99,,,0.00,,2013-05-20 00:42:00,
2013-05-19 18:52:00,50.0,48.0,-100.00,NW,325,26.0,32.0,94,-99.99,,,0.00,,2013-05-20 00:52:00,
2013-05-19 19:01:00,50.0,48.0,-100.00,NW,325,26.0,32.0,94,-99.99,,,0.00,,2013-05-20 01:01:00,
2013-05-19 19:11:00,50.0,48.0,-100.00,NNW,330,26.0,29.0,95,-99.99,,,0.00,,2013-05-20 01:11:00,
2013-05-19 19:21:00,50.0,48.0,-100.00,NNW,330,26.0,29.0,95,-99.99,,,0.00,,2013-05-20 01:21:00,
2013-05-19 19:31:00,50.0,48.0,-100.00,NNW,330,21.0,24.0,95,-99.99,,,0.00,,2013-05-20 01:31:00,
2013-05-19 19:42:00,50.0,48.0,-100.00,NNW,330,21.0,24.0,95,-99.99,,,0.00,,2013-05-20 01:42:00,
2013-05-19 19:52:00,49.0,48.0,-100.00,NW,325,23.0,29.0,95,-99.99,,,0.01,,2013-05-20 01:52:00,
2013-05-19 20:02:00,49.0,48.0,-100.00,NW,325,23.0,29.0,95,-99.99,,,0.01,,2013-05-20 02:02:00,
2013-05-19 20:11:00,50.0,48.0,-100.00,NW,325,24.0,29.0,95,-99.99,,,0.01,,2013-05-20 02:11:00,
2013-05-19 20:21:00,50.0,48.0,-100.00,NW,325,24.0,29.0,95,-99.99,,,0.01,,2013-05-20 02:21:00,
2013-05-19 20:31:00,50.0,48.0,-100.00,NNW,330,27.0,32.0,95,-99.99,,,0.01,,2013-05-20 02:31:00,
2013-05-19 20:42:00,50.0,48.0,-100.00,NNW,330,27.0,32.0,95,-99.99,,,0.01,,2013-05-20 02:42:00,
2013-05-19 20:51:00,49.0,48.0,-100.00,NNW,345,24.0,29.0,95,-99.99,,,0.01,,2013-05-20 02:51:00,
2013-05-19 21:01:00,49.0,48.0,-100.00,NNW,345,24.0,29.0,95,-99.99,,,0.01,,2013-05-20 03:01:00,
2013-05-19 21:11:00,49.0,47.0,-100.00,NNW,340,30.0,37.0,95,-99.99,,,0.02,,2013-05-20 03:11:00,
2013-05-19 21:21:00,49.0,47.0,-100.00,NNW,340,30.0,37.0,95,-99.99,,,0.02,,2013-05-20 03:21:00,
2013-05-19 21:33:00,48.0,47.0,-100.00,NNW,335,26.0,30.0,95,-99.99,,,0.02,,2013-05-20 03:33:00,
2013-05-19 21:42:00,48.0,47.0,-100.00,NNW,335,26.0,30.0,95,-99.99,,,0.02,,2013-05-20 03:42:00,
2013-05-19 21:52:00,48.0,47.0,-100.00,NNW,340,27.0,30.0,95,-99.99,,,0.02,,2013-05-20 03:52:00,
2013-05-19 22:03:00,48.0,47.0,-100.00,NNW,340,27.0,30.0,95,-99.99,,,0.02,,2013-05-20 04:03:00,
2013-05-19 22:13:00,48.0,47.0,-100.00,NNW,340,29.0,34.0,95,-99.99,,,0.02,,2013-05-20 04:13:00,
2013-05-19 22:23:00,48.0,47.0,-100.00,NNW,340,29.0,34.0,95,-99.99,,,0.02,,2013-05-20 04:23:00,
2013-05-19 22:33:00,48.0,47.0,-100.00,NNW,340,22.0,25.0,95,-99.99,,,0.02,,2013-05-20 04:33:00,
2013-05-19 22:42:00,48.0,47.0,-100.00,NNW,340,22.0,25.0,95,-99.99,,,0.02,,2013-05-20 04:42:00,
2013-05-19 22:52:00,49.0,47.0,-100.00,NNW,340,27.0,34.0,95,-99.99,,,0.03,,2013-05-20 04:52:00,
2013-05-19 23:02:00,49.0,47.0,-100.00,NNW,340,27.0,34.0,95,-99.99,,,0.03,,2013-05-20 05:02:00,
2013-05-19 23:12:00,49.0,47.0,-100.00,NNW,340,25.0,28.0,95,-99.99,,,0.03,,2013-05-20 05:12:00,
2013-05-19 23:22:00,49.0,47.0,-100.00,NNW,340,25.0,28.0,95,-99.99,,,0.03,,2013-05-20 05:22:00,
2013-05-19 23:32:00,49.0,47.0,-100.00,NNW,335,25.0,30.0,95,-99.99,,,0.03,,2013-05-20 05:32:00,
2013-05-19 23:42:00,49.0,47.0,-100.00,NNW,335,25.0,30.0,95,-99.99,,,0.03,,2013-05-20 05:42:00,
2013-05-19 23:51:00,49.0,47.0,-100.00,NW,325,29.0,35.0,95,-99.99,,,0.03,,2013-05-20 05:51:00,